Weather History for Beaufort, SC

Change the Weather History Date:

Friday, November 16, 2012

  Actual Average (KNBC) Record (KNBC)
Temperature  
Mean Temperature 48 °F -  
Max Temperature 51 °F 68 °F 81 °F (1956)
Min Temperature 46 °F 48 °F 24 °F (1969)
Degree Days  
Heating Degree Days 16    
Moisture  
Dew Point 45 °F    
Average Humidity 85    
Maximum Humidity 100    
Minimum Humidity 76    
Precipitation  
Precipitation 0.00 in - - ()
Sea Level Pressure  
Sea Level Pressure 30.25 in    
Wind  
Wind Speed 8 mph (North)    
Max Wind Speed 13 mph    
Max Gust Speed 16 mph    
Visibility 6 miles    
Events      
Averages and records for this station are not official NWS values.
T = Trace of Precipitation, MM = Missing Value Source: NWS Daily Summary

Daily Weather History Graph

Daily Weather History Graph

Search for Another Location

Airport:

Trip Planner

Search our weather history database for the weather conditions in past years. The results will help you decide how hot, cold, wet, or windy it might be!

Date:

Astronomy

Nov. 16, 2012 Rise Set
Actual Time 6:53 AM EST 5:21 PM EST
Civil Twilight 6:27 AM EST 5:47 PM EST
Nautical Twilight 5:57 AM EST 6:17 PM EST
Astronomical Twilight 5:28 AM EST 6:46 PM EST
Moon 9:43 AM EST (11/16) 8:21 PM EST (11/16)
Length of Visible Light 11h 20m
Length of Day
10h 27m
Waxing Crescent, 11% of the Moon is Illuminated
Nov 16
Waxing Crescent
Nov 20
First Quarter
Nov 28
Full
Dec 6
Last Quarter
Dec 13
New

Hourly Weather History & Observations

Time (EST) Temp. Windchill Dew Point Humidity Pressure Visibility Wind Dir Wind Speed Gust Speed Precip Events Conditions
12:15 AM 46.4 °F 42.9 °F 44.6 °F 93% 30.21 in 5.0 mi North 6.9 mph - N/A   Overcast
12:35 AM 46.4 °F 42.4 °F 44.6 °F 93% 30.22 in 3.0 mi NNW 8.1 mph - N/A   Overcast
12:55 AM 46.4 °F 42.4 °F 44.6 °F 93% 30.22 in 2.5 mi North 8.1 mph - N/A   Overcast
1:15 AM 46.4 °F 42.9 °F 44.6 °F 93% 30.22 in 2.5 mi North 6.9 mph - N/A   Overcast
1:35 AM 46.4 °F 42.4 °F 44.6 °F 93% 30.22 in 2.5 mi North 8.1 mph - N/A   Overcast
1:55 AM 46.4 °F 41.9 °F 44.6 °F 93% 30.22 in 3.0 mi North 9.2 mph - N/A   Overcast
2:15 AM 46.4 °F 43.5 °F 44.6 °F 93% 30.22 in 3.0 mi North 5.8 mph - N/A   Overcast
2:35 AM 46.4 °F 42.4 °F 46.4 °F 100% 30.22 in 3.0 mi North 8.1 mph - N/A   Overcast
2:55 AM 46.4 °F 41.9 °F 46.4 °F 100% 30.22 in 3.0 mi North 9.2 mph - N/A   Overcast
3:15 AM 46.4 °F 41.9 °F 46.4 °F 100% 30.22 in 4.0 mi North 9.2 mph - N/A   Overcast
3:35 AM 46.4 °F 42.4 °F 46.4 °F 100% 30.21 in 4.0 mi North 8.1 mph - N/A   Overcast
3:55 AM 46.4 °F 42.4 °F 46.4 °F 100% 30.21 in 5.0 mi North 8.1 mph - N/A   Overcast
4:15 AM 46.4 °F 43.5 °F 44.6 °F 93% 30.22 in 5.0 mi North 5.8 mph - N/A   Overcast
4:35 AM 46.4 °F 41.9 °F 44.6 °F 93% 30.22 in 5.0 mi North 9.2 mph - N/A   Overcast
4:55 AM 46.4 °F 42.9 °F 44.6 °F 93% 30.21 in 5.0 mi North 6.9 mph - N/A   Overcast
5:15 AM 46.4 °F 42.9 °F 44.6 °F 93% 30.22 in 5.0 mi North 6.9 mph - N/A   Overcast
5:35 AM 46.4 °F 43.5 °F 44.6 °F 93% 30.22 in 7.0 mi North 5.8 mph - N/A   Overcast
5:55 AM 46.4 °F 43.5 °F 44.6 °F 93% 30.23 in 7.0 mi North 5.8 mph - N/A   Overcast
6:15 AM 46.4 °F 41.9 °F 44.6 °F 93% 30.23 in 5.0 mi North 9.2 mph - N/A   Overcast
6:35 AM 46.4 °F 42.9 °F 44.6 °F 93% 30.23 in 5.0 mi North 6.9 mph - N/A   Overcast
6:55 AM 46.4 °F 42.9 °F 44.6 °F 93% 30.23 in 7.0 mi North 6.9 mph - N/A   Overcast
7:15 AM 46.4 °F 42.4 °F 44.6 °F 93% 30.24 in 5.0 mi North 8.1 mph - N/A   Overcast
7:35 AM 46.4 °F 42.4 °F 44.6 °F 93% 30.24 in 5.0 mi North 8.1 mph - N/A   Overcast
7:55 AM 48.2 °F - 44.6 °F 87% 30.25 in 5.0 mi North 10.4 mph - N/A   Overcast
8:15 AM 48.2 °F - 44.6 °F 87% 30.25 in 5.0 mi North 9.2 mph - N/A   Overcast
8:35 AM 48.2 °F - 44.6 °F 87% 30.26 in 5.0 mi North 10.4 mph - N/A   Overcast
8:55 AM 48.2 °F - 44.6 °F 87% 30.27 in 5.0 mi North 6.9 mph - N/A   Overcast
9:15 AM 50.0 °F - 44.6 °F 82% 30.27 in 5.0 mi North 10.4 mph - N/A   Overcast
9:35 AM 50.0 °F - 44.6 °F 82% 30.27 in 5.0 mi NNE 11.5 mph - N/A   Overcast
9:55 AM 50.0 °F - 44.6 °F 82% 30.27 in 5.0 mi NNE 10.4 mph - N/A   Overcast
10:15 AM 50.0 °F - 46.4 °F 87% 30.27 in 5.0 mi North 10.4 mph - N/A   Overcast
10:35 AM 50.0 °F - 46.4 °F 87% 30.28 in 5.0 mi NNE 11.5 mph - N/A   Overcast
10:55 AM 50.0 °F - 44.6 °F 82% 30.28 in 5.0 mi NNE 12.7 mph - N/A   Haze
11:15 AM 51.8 °F - 46.4 °F 82% 30.28 in 7.0 mi NNE 12.7 mph - N/A   Overcast
11:35 AM 51.8 °F - 44.6 °F 76% 30.27 in 4.0 mi NNE 11.5 mph - N/A   Haze
11:55 AM 51.8 °F - 44.6 °F 76% 30.27 in 5.0 mi NNE 10.4 mph - N/A   Haze
12:15 PM 51.8 °F - 44.6 °F 76% 30.27 in 7.0 mi NNE 10.4 mph - N/A   Overcast
12:35 PM 51.8 °F - 44.6 °F 76% 30.27 in 5.0 mi NNE 10.4 mph - N/A   Haze
12:55 PM 51.8 °F - 46.4 °F 82% 30.26 in 5.0 mi North 10.4 mph - N/A   Haze
1:15 PM 51.8 °F - 46.4 °F 82% 30.26 in 7.0 mi North 10.4 mph - N/A   Overcast
1:35 PM 51.8 °F - 46.4 °F 82% 30.25 in 7.0 mi North 9.2 mph - N/A   Overcast
1:55 PM 51.8 °F - 46.4 °F 82% 30.25 in 7.0 mi North 9.2 mph - N/A   Overcast
2:15 PM 51.8 °F - 44.6 °F 76% 30.25 in 7.0 mi North 10.4 mph - N/A   Overcast
2:35 PM 51.8 °F - 44.6 °F 76% 30.25 in 5.0 mi North 11.5 mph - N/A   Haze
2:55 PM 51.8 °F - 44.6 °F 76% 30.24 in 7.0 mi North 11.5 mph - N/A   Overcast
3:15 PM 51.8 °F - 44.6 °F 76% 30.24 in 7.0 mi North 10.4 mph 16.1 mph N/A   Overcast
3:35 PM 51.8 °F - 44.6 °F 76% 30.25 in 5.0 mi North 8.1 mph - N/A   Haze
3:55 PM 51.8 °F - 44.6 °F 76% 30.24 in 5.0 mi North 10.4 mph - N/A   Haze
4:15 PM 51.8 °F - 44.6 °F 76% 30.24 in 5.0 mi North 11.5 mph - N/A   Haze
4:35 PM 51.8 °F - 44.6 °F 76% 30.24 in 5.0 mi North 10.4 mph - N/A   Haze
4:55 PM 51.8 °F - 44.6 °F 76% 30.24 in 4.0 mi North 10.4 mph - N/A   Haze
5:15 PM 51.8 °F - 44.6 °F 76% 30.25 in 5.0 mi NNE 6.9 mph - N/A   Haze
5:35 PM 51.8 °F - 44.6 °F 76% 30.26 in 7.0 mi NNE 4.6 mph - N/A   Scattered Clouds
5:55 PM 50.0 °F - 46.4 °F 87% 30.26 in 10.0 mi NNE 3.5 mph - N/A   Mostly Cloudy
6:15 PM 50.0 °F - 46.4 °F 87% 30.27 in 7.0 mi North 4.6 mph - N/A   Overcast
6:35 PM 50.0 °F - 46.4 °F 87% 30.27 in 7.0 mi North 3.5 mph - N/A   Overcast
6:55 PM 50.0 °F - 46.4 °F 87% 30.26 in 7.0 mi North 3.5 mph - N/A   Overcast
7:15 PM 50.0 °F - 46.4 °F 87% 30.27 in 7.0 mi North 4.6 mph - N/A   Mostly Cloudy
7:35 PM 50.0 °F - 46.4 °F 87% 30.27 in 10.0 mi North 5.8 mph - N/A   Scattered Clouds
7:55 PM 50.0 °F - 46.4 °F 87% 30.27 in 10.0 mi NNW 5.8 mph - N/A   Clear
8:15 PM 50.0 °F - 46.4 °F 87% 30.27 in 7.0 mi North 5.8 mph - N/A   Clear
8:55 PM 50.0 °F - 46.4 °F 87% 30.27 in 7.0 mi North 9.2 mph - N/A   Clear
9:15 PM 51.8 °F - 46.4 °F 82% 30.27 in 7.0 mi North 8.1 mph - N/A   Clear
9:35 PM 51.8 °F - 44.6 °F 76% 30.28 in 7.0 mi North 9.2 mph - N/A   Clear
9:55 PM 51.8 °F - 44.6 °F 76% 30.28 in 7.0 mi North 10.4 mph - N/A   Clear
10:15 PM 51.8 °F - 44.6 °F 76% 30.29 in 10.0 mi North 11.5 mph - N/A   Clear
10:35 PM 51.8 °F - 44.6 °F 76% 30.29 in 7.0 mi North 9.2 mph - N/A   Clear
10:55 PM 51.8 °F - 44.6 °F 76% 30.29 in 7.0 mi North 10.4 mph - N/A   Clear
11:15 PM 51.8 °F - 44.6 °F 76% 30.29 in 7.0 mi North 10.4 mph - N/A   Clear
11:35 PM 51.8 °F - 44.6 °F 76% 30.28 in 7.0 mi NNE 12.7 mph - N/A   Clear
11:55 PM 51.8 °F - 44.6 °F 76% 30.28 in 7.0 mi NNE 11.5 mph - N/A   Clear